Retour au catalogue

KINEIS-3B

ActifCommunicationsSSO
NORAD 61224·PAYLOAD·🇫🇷 France

Lancé Sep 20, 2024 depuis Rocket Lab Launch Complex 1

Loading…

Prochains Passages (prochaines 24 heures)

TLE

FraisSource: Space-Track

Époque: Sep 14, 2026, 04:19 UTC

1 61224U 24172E   26257.18042917  .00001292  00000-0  21211-3 0  9999
2 61224  98.0397 346.2257 0002964 125.9822 234.1661 14.72323710106440

Suivez KINEIS-3B en temps réel avec AllMySat

Download on the App Store